Satellite-Ground Cal/Val Site Overpasses Predictions

Prediction of Satellite NPP Overpassing Cal/Val Site: Antarctic Dome C

Ground Cal/Val Site Location: Latitude: -75.10, Longitude: 123.35; Satellite-Ground Site NADIR distance within 100 km.

Table of predicted overpasses for the next 14.0 days since TLE Epoch: 6/23/2017
Interval Starting Time Ending Time Minimum Distance Time Minimum Distance (km)
1 06/24/2017 07:37:29 06/24/2017 07:37:57 06/24/2017 07:37:43 33.02
2 06/25/2017 07:18:44 06/25/2017 07:19:03 06/25/2017 07:18:53 77.21
3 06/27/2017 15:00:58 06/27/2017 15:01:22 06/27/2017 15:01:10 56.79
4 06/28/2017 14:42:07 06/28/2017 14:42:32 06/28/2017 14:42:20 52.24
5 06/29/2017 07:43:48 06/29/2017 07:44:09 06/29/2017 07:43:59 68.15
6 06/30/2017 07:24:56 06/30/2017 07:25:23 06/30/2017 07:25:10 39.92
7 07/02/2017 15:07:22 07/02/2017 15:07:31 07/02/2017 15:07:26 94.35
8 07/03/2017 14:48:21 07/03/2017 14:48:50 07/03/2017 14:48:36 16.94


NCC Satellite Cal/Val Overpasses Prediction Service
